Montpelier, VT

1:27 AM EDT on October 21, 2017 (GMT -0400)
Knapp State

Weather History for KMPV - October, 2013

Change the Weather History Date:

Monday, October 7, 2013

  Actual Average Record
Temperature  
Mean Temperature 58 °F 49 °F  
Max Temperature 66 °F 60 °F 83 °F (1963)
Min Temperature 50 °F 38 °F 22 °F (1964)
Degree Days  
Heating Degree Days 7 16  
Month to date heating degree days 70 106  
Since 1 July heating degree days 450 461  
Cooling Degree Days 0 0  
Month to date cooling degree days 0 0  
Year to date cooling degree days 323 263  
Growing Degree Days 8 (Base 50)    
Moisture  
Dew Point 55 °F    
Average Humidity 86    
Maximum Humidity 100    
Minimum Humidity 71    
Precipitation  
Precipitation 0.73 in 0.12 in 2.28 in (1972)
Month to date precipitation 1.08 0.82  
Year to date precipitation 30.69 28.74  
Sea Level Pressure  
Sea Level Pressure 29.88 in    
Wind  
Wind Speed 11 mph (SSW)    
Max Wind Speed 28 mph    
Max Gust Speed 41 mph    
Visibility 8 miles    
Events Rain    
T = Trace of Precipitation, MM = Missing Value Source: NWS Daily Summary

Daily Weather History Graph

Daily Weather History Graph

Search for Another Location

Airport or City:

Trip Planner

Search our weather history database for the weather conditions in past years. The results will help you decide how hot, cold, wet, or windy it might be!

Date:

Astronomy

Oct. 07, 2013 Rise Set
Actual Time 6:55 AM EDT 6:19 PM EDT
Civil Twilight 6:26 AM EDT 6:48 PM EDT
Nautical Twilight 5:52 AM EDT 7:22 PM EDT
Astronomical Twilight 5:19 AM EDT 7:55 PM EDT
Moon 9:49 AM EDT (10/7) 7:55 PM EDT (10/7)
Length of Visible Light 12h 22m
Length of Day
11h 24m
Waxing Crescent, 8% of the Moon is Illuminated
Oct 7
Waxing Crescent
Oct 11
First Quarter
Oct 18
Full
Oct 26
Last Quarter
Nov 3
New

Hourly Weather History & Observations

Time (EDT) Temp. Dew Point Humidity Pressure Visibility Wind Dir Wind Speed Gust Speed Precip Events Conditions
12:51 AM 50.0 °F 48.0 °F 93% 30.13 in 10.0 mi South 6.9 mph - N/A   Overcast
1:51 AM 50.0 °F 48.0 °F 93% 30.12 in 10.0 mi South 5.8 mph - N/A   Overcast
2:51 AM 51.1 °F 48.9 °F 92% 30.09 in 10.0 mi SSW 8.1 mph - N/A   Overcast
3:51 AM 51.1 °F 50.0 °F 96% 30.08 in 10.0 mi South 11.5 mph 16.1 mph N/A   Overcast
4:51 AM 52.0 °F 50.0 °F 93% 30.06 in 6.0 mi South 9.2 mph 19.6 mph N/A   Overcast
5:51 AM 52.0 °F 51.1 °F 97% 30.05 in 10.0 mi South 8.1 mph - N/A   Overcast
6:05 AM 53.6 °F 51.8 °F 94% 30.02 in 10.0 mi South 11.5 mph - N/A   Overcast
6:17 AM 53.6 °F 51.8 °F 94% 30.02 in 10.0 mi South 12.7 mph 19.6 mph N/A   Overcast
6:24 AM 53.6 °F 51.8 °F 94% 30.02 in 10.0 mi South 12.7 mph 19.6 mph N/A   Overcast
6:28 AM 53.6 °F 51.8 °F 94% 30.02 in 10.0 mi South 11.5 mph - N/A   Overcast
6:51 AM 53.1 °F 51.1 °F 93% 30.04 in 10.0 mi South 12.7 mph - N/A   Overcast
7:51 AM 53.1 °F 52.0 °F 96% 30.02 in 10.0 mi South 9.2 mph - N/A   Overcast
8:51 AM 54.0 °F 53.1 °F 97% 30.00 in 9.0 mi South 9.2 mph 17.3 mph N/A   Overcast
9:51 AM 55.9 °F 55.0 °F 97% 29.98 in 4.0 mi South 8.1 mph - N/A   Overcast
10:24 AM 57.2 °F 55.4 °F 94% 29.95 in 9.0 mi South 10.4 mph - 0.00 in   Overcast
10:51 AM 59.0 °F 55.9 °F 90% 29.94 in 10.0 mi South 16.1 mph 24.2 mph 0.00 in   Overcast
11:03 AM 60.8 °F 57.2 °F 88% 29.91 in 10.0 mi South 15.0 mph 24.2 mph N/A   Overcast
11:51 AM 60.1 °F 57.9 °F 93% 29.90 in 3.0 mi South 17.3 mph 21.9 mph N/A   Overcast
12:51 PM 61.0 °F 59.0 °F 93% 29.86 in 8.0 mi South 13.8 mph 20.7 mph 0.00 in   Overcast
1:51 PM 62.1 °F 60.1 °F 93% 29.80 in 10.0 mi SSE 10.4 mph - 0.00 in   Overcast
2:09 PM 62.6 °F 60.8 °F 94% 29.78 in 10.0 mi SSE 9.2 mph - 0.00 in Rain Light Rain
2:51 PM 64.0 °F 61.0 °F 90% 29.73 in 4.0 mi SSE 15.0 mph 21.9 mph 0.01 in Rain Light Rain
3:51 PM 66.0 °F 62.1 °F 87% 29.68 in 9.0 mi SSE 18.4 mph 31.1 mph 0.01 in   Overcast
4:13 PM 64.4 °F 62.6 °F 94% 29.67 in 2.5 mi SSE 17.3 mph 25.3 mph 0.06 in Rain Rain
4:23 PM 64.4 °F 62.6 °F 94% 29.67 in 3.0 mi South 12.7 mph - 0.06 in Rain Light Rain
4:41 PM 64.4 °F 62.6 °F 94% 29.74 in 2.0 mi West 27.6 mph 41.4 mph 0.22 in Rain Light Rain
4:43 PM 62.6 °F 62.6 °F 100% 29.73 in 1.0 mi SW 19.6 mph 41.4 mph 0.39 in Rain Heavy Rain
4:45 PM 60.8 °F 60.8 °F 100% 29.72 in 0.8 mi SSW 24.2 mph 41.4 mph 0.47 in Rain Heavy Rain
4:51 PM 62.1 °F 60.1 °F 93% 29.70 in 0.8 mi SSW 16.1 mph 31.1 mph 0.54 in Rain Heavy Rain
4:53 PM 62.6 °F 60.8 °F 94% 29.70 in 1.5 mi SSW 12.7 mph 31.1 mph 0.01 in Rain Heavy Rain
4:57 PM 62.6 °F 60.8 °F 94% 29.70 in 3.0 mi SSW 11.5 mph 26.5 mph 0.02 in Rain Rain
5:51 PM 62.1 °F 59.0 °F 90% 29.73 in 5.0 mi SW 5.8 mph - 0.15 in Rain Rain
6:14 PM 62.6 °F 59.0 °F 88% 29.75 in 10.0 mi WSW 10.4 mph - 0.01 in Rain Light Rain
6:32 PM 62.6 °F 57.2 °F 82% 29.77 in 10.0 mi SW 8.1 mph - 0.02 in Rain Light Rain
6:51 PM 61.0 °F 57.0 °F 87% 29.79 in 10.0 mi West 8.1 mph 18.4 mph 0.02 in   Overcast
7:51 PM 57.0 °F 52.0 °F 83% 29.84 in 10.0 mi West 12.7 mph 23.0 mph 0.00 in Rain Light Rain
8:51 PM 55.0 °F 46.9 °F 74% 29.88 in 10.0 mi WSW 12.7 mph 21.9 mph 0.00 in   Overcast
9:51 PM 54.0 °F 45.0 °F 72% 29.91 in 10.0 mi South 9.2 mph 16.1 mph N/A   Clear
10:51 PM 53.1 °F 44.1 °F 71% 29.91 in 10.0 mi SW 11.5 mph 23.0 mph N/A   Partly Cloudy
11:51 PM 53.1 °F 44.1 °F 71% 29.93 in 10.0 mi Variable 5.8 mph - N/A   Mostly Cloudy